Regional Weather Roundup
Issued by NWS New Orleans/Baton Rouge, LA

Home | Current Version | Previous Version | Text Only | Print | Product List | Glossary Off
Versions: 1 2 3 4 5 6 7 8 9 10 11 12 13 14 15 16 17 18 19 20 21 22 23 24 25 26 27 28 29 30 31 32 33 34 35 36 37 38 39 40 41 42 43 44 45 46 47 48 49 50

197
ASUS44 KLIX 310010
RWRLIX
NEW ORLEANS REGIONAL WEATHER ROUNDUP
NATIONAL WEATHER SERVICE NEW ORLEANS LA
700 PM CDT THU OCT 30 2014

NOTE: "FAIR" INDICATES FEW OR NO CLOUDS BELOW 12,000 FEET WITH NO
      SIGNIFICANT WEATHER AND/OR OBSTRUCTIONS TO VISIBILITY.
      SKY/WX - SKY CONDITION AND SIGNIFICANT WEATHER.
      TMP - AIR TEMPERATURE.     DP    - DEWPOINT TEMPERATURE.
      RH  - RELATIVE HUMIDITY.   PRES  - PRESSURE.
      HI  - HEAT INDEX.          WCI   - WIND CHILL INDEX.

*  THESE STATIONS ARE NOT NWS OR FAA STATIONS AND ARE NOT UNDER
   NWS QUALITY CONTROL.

LAZ038-040-048-061>063-065>067-069-310100-
SOUTHEAST LOUISIANA

CITY           SKY/WX    TMP DP  RH WIND       PRES   REMARKS
N.O. AUDUBON     N/A     64 N/A N/A MISG        N/A
6HR MIN TEMP:  65; 6HR MAX TEMP:  76;

N.O. INTL ARPT CLEAR     67  44  43 NW5       30.04R
6HR MIN TEMP:  67; 6HR MAX TEMP:  74;

N.O. LAKEFRONT CLEAR     70  50  49 NW8       30.04R
6HR MIN TEMP:  70; 6HR MAX TEMP:  74;

N.O. DOWNTOWN*   N/A     70  43  37 CALM      30.04S
6HR MIN TEMP:  70; 6HR MAX TEMP:  73;

SLIDELL        CLEAR     59  50  72 CALM      30.03R
6HR MIN TEMP:  59; 6HR MAX TEMP:  76;

BATON ROUGE    CLEAR     61  48  62 CALM      30.04F
6HR MIN TEMP:  61; 6HR MAX TEMP:  75;

BOOTHVILLE     CLEAR     67  51  56 N3        30.03S
6HR MIN TEMP:  67; 6HR MAX TEMP:  72;

BELLE CHASSE   CLEAR     57  50  77 CALM      30.03R
6HR MIN TEMP:  57; 6HR MAX TEMP:  75;

BOGALUSA*        N/A     59  45  59 CALM      30.05S
6HR MIN TEMP:  58; 6HR MAX TEMP:  76;

NEW ROADS*       N/A     63  48  59 NW6       30.06R
6HR MIN TEMP:  63; 6HR MAX TEMP:  74;

GONZALES*        N/A     60  54  81 CALM      30.04S
6HR MIN TEMP:  60; 6HR MAX TEMP:  75;

HAMMOND*       CLEAR     63  46  55 CALM      30.05F
HOUMA*         CLEAR     59  39  47 N5        30.04R
PORT FOURCHON* CLEAR     70  50  49 NE5       30.06S

$$

MSZ070-080>082-310100-
SOUTHERN MISSISSIPPI

CITY           SKY/WX    TMP DP  RH WIND       PRES   REMARKS
MCCOMB         CLEAR     61  44  53 N3        30.05R
6HR MIN TEMP:  61; 6HR MAX TEMP:  74;

GULFPORT       CLEAR     60  45  57 NW5       30.02R
6HR MIN TEMP:  60; 6HR MAX TEMP:  75;

BILOXI         CLEAR     67  43  42 N2        30.02R
6HR MIN TEMP:  67; 6HR MAX TEMP:  74;

PASCAGOULA     CLEAR     52  45  77 CALM      30.02R
6HR MIN TEMP:  52; 6HR MAX TEMP:  74;

STENNIS ARPT*  CLEAR     57  45  62 CALM      30.04R

$$

COASTAL OBSERVATIONS
LAKE AND NEARSHORE STATIONS

STATION/POSITION TIME  TEMP    WIND        PRES    WAVE
                       AIR SEA DIR/SP/G            HT/PER
                 (UTC) (F)     (DEG/KT/KT) (MB)    (FT/S)
PASCAGOULA       0000   65     360/  4/  4 1015.9
WAVELAND YACHT   0000   70     360/  9/ 10 1016.0
GRAND ISLE       0000   69 76   50/  4/  8 1017.4
SOUTHWEST PASS   0000   69 78              1017.0
NEW CANAL        0000   70 71  290/  3/  5 1017.4
SHELL BEACH      0000   70 69  300/  3/  4 1016.7

OFFSHORE STATIONS

STATION/POSITION TIME  TEMP    WIND        PRES    WAVE
                       AIR SEA DIR/SP/G            HT/PER
                 (UTC) (F)     (DEG/KT/KT) (MB)    (FT/S)

$$




USA.gov is the U.S. government's official web portal to all federal, state and local government web resources and services.